Time,TemperatureF,DewpointF,PressureIn,WindDirection,WindDirectionDegrees,WindSpeedMPH,WindSpeedGustMPH,Humidity,HourlyPrecipIn,Conditions,Clouds,dailyrainin,SolarRadiationWatts/m^2,SoftwareType,DateUTC
2013-11-14 00:03:00,23.0,22.0,30.71,WNW,290,1.0,3.0,96,0.00,,,0.01,0.000000,,2013-11-14 05:03:00,
2013-11-14 00:44:00,24.0,23.0,30.70,South,183,1.0,2.0,96,-99.99,,,0.01,0.000000,,2013-11-14 05:44:00,
2013-11-14 00:53:00,24.0,23.0,30.70,South,183,1.0,2.0,96,-99.99,,,0.01,0.000000,,2013-11-14 05:53:00,
2013-11-14 01:03:00,24.0,23.0,30.70,South,183,1.0,2.0,96,-99.99,,,0.01,0.000000,,2013-11-14 06:03:00,
2013-11-14 01:12:00,24.0,23.0,30.70,South,183,1.0,2.0,96,-99.99,,,0.01,0.000000,,2013-11-14 06:12:00,
2013-11-14 01:42:00,22.0,21.0,30.70,WNW,294,1.0,3.0,96,0.00,,,-99.99,0.000000,,2013-11-14 06:42:00,
2013-11-14 01:52:00,22.0,21.0,30.70,WNW,294,1.0,3.0,96,0.00,,,-99.99,0.000000,,2013-11-14 06:52:00,
2013-11-14 02:02:00,22.0,21.0,30.70,WNW,294,1.0,3.0,96,0.00,,,-99.99,0.000000,,2013-11-14 07:02:00,
2013-11-14 02:11:00,22.0,21.0,30.70,WNW,294,1.0,3.0,96,0.00,,,-99.99,0.000000,,2013-11-14 07:11:00,
2013-11-14 02:42:00,22.0,21.0,30.69,West,265,1.0,3.0,96,0.00,,,0.01,0.000000,,2013-11-14 07:42:00,
2013-11-14 02:53:00,22.0,21.0,30.69,West,265,1.0,3.0,96,0.00,,,0.01,0.000000,,2013-11-14 07:53:00,
2013-11-14 03:01:00,22.0,21.0,30.69,West,265,1.0,3.0,96,0.00,,,0.01,0.000000,,2013-11-14 08:01:00,
2013-11-14 03:12:00,22.0,21.0,30.69,West,265,1.0,3.0,96,0.00,,,0.01,0.000000,,2013-11-14 08:12:00,
2013-11-14 03:42:00,23.0,22.0,30.69,WSW,241,2.0,6.0,96,0.00,,,0.01,0.000000,,2013-11-14 08:42:00,
2013-11-14 03:53:00,23.0,22.0,30.69,WSW,241,2.0,6.0,96,0.00,,,0.01,0.000000,,2013-11-14 08:53:00,
2013-11-14 04:02:00,23.0,22.0,30.69,WSW,241,2.0,6.0,96,0.00,,,0.01,0.000000,,2013-11-14 09:02:00,
2013-11-14 04:11:00,23.0,22.0,30.69,WSW,241,2.0,6.0,96,0.00,,,0.01,0.000000,,2013-11-14 09:11:00,
2013-11-14 04:43:00,21.0,20.0,30.69,NNW,342,1.0,4.0,95,0.00,,,0.01,0.000000,,2013-11-14 09:43:00,
2013-11-14 04:53:00,21.0,20.0,30.69,NNW,342,1.0,4.0,95,0.00,,,0.01,0.000000,,2013-11-14 09:53:00,
2013-11-14 05:03:00,21.0,20.0,30.69,NNW,342,1.0,4.0,95,0.00,,,0.01,0.000000,,2013-11-14 10:03:00,
2013-11-14 05:12:00,21.0,20.0,30.69,NNW,342,1.0,4.0,95,0.00,,,0.01,0.000000,,2013-11-14 10:12:00,
2013-11-14 05:43:00,21.0,20.0,30.69,NE,41,1.0,2.0,95,0.00,,,0.01,0.000000,,2013-11-14 10:43:00,
2013-11-14 05:52:00,21.0,20.0,30.69,NE,41,1.0,2.0,95,0.00,,,0.01,0.000000,,2013-11-14 10:52:00,
2013-11-14 06:02:00,21.0,20.0,30.69,NE,41,1.0,2.0,95,0.00,,,0.01,0.000000,,2013-11-14 11:02:00,
2013-11-14 06:11:00,21.0,20.0,30.69,NE,41,1.0,2.0,95,0.00,,,0.01,0.000000,,2013-11-14 11:11:00,
2013-11-14 06:42:00,20.0,19.0,30.71,West,263,2.0,2.0,95,0.00,,,0.01,0.000000,,2013-11-14 11:42:00,
2013-11-14 06:52:00,20.0,19.0,30.71,West,263,2.0,2.0,95,0.00,,,0.01,0.000000,,2013-11-14 11:52:00,
2013-11-14 07:02:00,20.0,19.0,30.71,West,263,2.0,2.0,95,0.00,,,0.01,0.000000,,2013-11-14 12:02:00,
2013-11-14 07:12:00,20.0,19.0,30.71,West,263,2.0,2.0,95,0.00,,,0.01,0.000000,,2013-11-14 12:12:00,
2013-11-14 07:42:00,24.0,23.0,30.73,NW,318,1.0,3.0,94,0.00,,,0.01,3.000000,,2013-11-14 12:42:00,
2013-11-14 07:52:00,24.0,23.0,30.73,NW,318,1.0,3.0,94,0.00,,,0.01,3.000000,,2013-11-14 12:52:00,
2013-11-14 08:02:00,24.0,23.0,30.73,NW,318,1.0,3.0,94,0.00,,,0.01,3.000000,,2013-11-14 13:02:00,
2013-11-14 08:11:00,24.0,23.0,30.73,NW,318,1.0,3.0,94,0.00,,,0.01,3.000000,,2013-11-14 13:11:00,
2013-11-14 08:42:00,32.0,28.0,30.74,NNW,347,1.0,3.0,85,0.00,,,0.01,106.000000,,2013-11-14 13:42:00,
2013-11-14 08:52:00,32.0,28.0,30.74,NNW,347,1.0,3.0,85,0.00,,,0.01,106.000000,,2013-11-14 13:52:00,
2013-11-14 09:02:00,32.0,28.0,30.74,NNW,347,1.0,3.0,85,0.00,,,0.01,106.000000,,2013-11-14 14:02:00,
2013-11-14 09:11:00,32.0,28.0,30.74,NNW,347,1.0,3.0,85,0.00,,,0.01,106.000000,,2013-11-14 14:11:00,
2013-11-14 10:11:00,45.0,27.0,30.74,WNW,301,3.0,5.0,49,0.00,,,0.01,307.000000,,2013-11-14 15:11:00,
2013-11-14 10:43:00,50.0,21.0,30.74,WSW,249,3.0,7.0,31,0.00,,,0.01,442.000000,,2013-11-14 15:43:00,
2013-11-14 10:53:00,50.0,21.0,30.74,WSW,249,3.0,7.0,31,0.00,,,0.01,442.000000,,2013-11-14 15:53:00,
2013-11-14 11:03:00,50.0,21.0,30.74,WSW,249,3.0,7.0,31,0.00,,,0.01,442.000000,,2013-11-14 16:03:00,
2013-11-14 11:13:00,50.0,21.0,30.74,WSW,249,3.0,7.0,31,0.00,,,0.01,442.000000,,2013-11-14 16:13:00,
2013-11-14 11:42:00,54.0,16.0,30.72,West,271,3.0,9.0,22,0.00,,,0.00,541.000000,,2013-11-14 16:42:00,
2013-11-14 11:52:00,54.0,16.0,30.72,West,271,3.0,9.0,22,0.00,,,0.00,541.000000,,2013-11-14 16:52:00,
2013-11-14 12:02:00,54.0,16.0,30.72,West,271,3.0,9.0,22,0.00,,,0.00,541.000000,,2013-11-14 17:02:00,
2013-11-14 12:13:00,54.0,16.0,30.72,West,271,3.0,9.0,22,0.00,,,0.00,541.000000,,2013-11-14 17:13:00,
2013-11-14 12:42:00,57.0,17.0,30.68,NNE,21,3.0,9.0,21,0.00,,,0.00,591.000000,,2013-11-14 17:42:00,
2013-11-14 12:52:00,57.0,17.0,30.68,NNE,21,3.0,9.0,21,0.00,,,0.00,591.000000,,2013-11-14 17:52:00,
2013-11-14 13:02:00,57.0,17.0,30.68,NNE,21,3.0,9.0,21,0.00,,,0.00,591.000000,,2013-11-14 18:02:00,
2013-11-14 13:12:00,57.0,17.0,30.68,NNE,21,3.0,9.0,21,0.00,,,0.00,591.000000,,2013-11-14 18:12:00,
2013-11-14 13:42:00,60.0,18.0,30.66,NW,314,4.0,9.0,19,0.00,,,0.00,576.000000,,2013-11-14 18:42:00,
2013-11-14 13:52:00,60.0,18.0,30.66,NW,314,4.0,9.0,19,0.00,,,0.00,576.000000,,2013-11-14 18:52:00,
2013-11-14 14:01:00,60.0,18.0,30.66,NW,314,4.0,9.0,19,0.00,,,0.00,576.000000,,2013-11-14 19:01:00,
2013-11-14 14:11:00,60.0,18.0,30.66,NW,314,4.0,9.0,19,0.00,,,0.00,576.000000,,2013-11-14 19:11:00,
2013-11-14 14:42:00,61.0,17.0,30.64,ENE,78,3.0,11.0,18,0.00,,,0.00,507.000000,,2013-11-14 19:42:00,
2013-11-14 14:52:00,61.0,17.0,30.64,ENE,78,3.0,11.0,18,0.00,,,0.00,507.000000,,2013-11-14 19:52:00,
2013-11-14 15:02:00,61.0,17.0,30.64,ENE,78,3.0,11.0,18,0.00,,,0.00,507.000000,,2013-11-14 20:02:00,
2013-11-14 15:12:00,61.0,17.0,30.64,ENE,78,3.0,11.0,18,0.00,,,0.00,507.000000,,2013-11-14 20:12:00,
2013-11-14 15:42:00,60.0,19.0,30.63,ESE,123,4.0,10.0,20,0.00,,,0.00,383.000000,,2013-11-14 20:42:00,
2013-11-14 15:52:00,60.0,19.0,30.63,ESE,123,4.0,10.0,20,0.00,,,0.00,383.000000,,2013-11-14 20:52:00,
2013-11-14 16:02:00,60.0,19.0,30.63,ESE,123,4.0,10.0,20,0.00,,,0.00,383.000000,,2013-11-14 21:02:00,
2013-11-14 16:11:00,60.0,19.0,30.63,ESE,123,4.0,10.0,20,0.00,,,0.00,383.000000,,2013-11-14 21:11:00,
2013-11-14 16:43:00,58.0,21.0,30.62,NW,306,4.0,11.0,24,0.00,,,0.00,225.000000,,2013-11-14 21:43:00,
2013-11-14 16:53:00,58.0,21.0,30.62,NW,306,4.0,11.0,24,0.00,,,0.00,225.000000,,2013-11-14 21:53:00,
2013-11-14 17:03:00,58.0,21.0,30.62,NW,306,4.0,11.0,24,0.00,,,0.00,225.000000,,2013-11-14 22:03:00,
2013-11-14 17:13:00,58.0,21.0,30.62,NW,306,4.0,11.0,24,0.00,,,0.00,225.000000,,2013-11-14 22:13:00,
2013-11-14 18:12:00,47.0,29.0,30.62,WNW,289,1.0,6.0,49,0.00,,,0.00,53.000000,,2013-11-14 23:12:00,
2013-11-14 20:12:00,35.0,30.0,30.62,SE,141,2.0,4.0,83,-99.99,,,-99.99,0.000000,,2013-11-15 01:12:00,
2013-11-14 20:42:00,33.0,31.0,30.61,South,174,2.0,3.0,92,0.00,,,0.00,0.000000,,2013-11-15 01:42:00,
2013-11-14 21:12:00,33.0,31.0,30.61,South,174,2.0,3.0,92,0.00,,,0.00,0.000000,,2013-11-15 02:12:00,
2013-11-14 21:42:00,31.0,29.0,30.61,North,4,0.0,3.0,92,0.00,,,0.00,0.000000,,2013-11-15 02:42:00,
2013-11-14 22:44:00,31.0,29.0,30.60,East,98,1.0,2.0,91,0.00,,,0.00,0.000000,,2013-11-15 03:44:00,
2013-11-14 22:54:00,31.0,29.0,30.60,East,98,1.0,2.0,91,0.00,,,0.00,0.000000,,2013-11-15 03:54:00,
2013-11-14 23:04:00,31.0,29.0,30.60,East,98,1.0,2.0,91,0.00,,,0.00,0.000000,,2013-11-15 04:04:00,
2013-11-14 23:14:00,31.0,29.0,30.60,East,98,1.0,2.0,91,0.00,,,0.00,0.000000,,2013-11-15 04:14:00,
2013-11-14 23:43:00,32.0,31.0,30.59,WNW,286,1.0,4.0,95,0.00,,,0.00,0.000000,,2013-11-15 04:43:00,
2013-11-14 23:53:00,32.0,31.0,30.59,WNW,286,1.0,4.0,95,0.00,,,0.00,0.000000,,2013-11-15 04:53:00,